DW5096 Weather Reports


time (UTC)temp
C
wind
direction
speed
KPH
gust
KPH
rain 1hr
cm
rain 24hr
cm
rain mn
cm
humidity
%
barometer
mb
20260506002553 14 257 0.0 3.2 0.03 0.28 0.28 92 1001.0
20260506001053 14 257 1.6 9.7 0.03 0.28 0.28 92 1000.7
20260505235553 14 258 0.0 6.4 0.03 0.28 0.28 91 1000.7
20260505234051 15 258 1.6 11.3 0.00 0.25 0.25 90 1000.6
20260505232551 15 257 1.6 11.3 0.00 0.25 0.25 88 1000.4
20260505231051 15 247 1.6 8.0 0.00 0.25 0.25 88 999.9
20260505225553 15 246 1.6 6.4 0.00 0.25 0.25 88 999.9
20260505224051 15 247 1.6 12.9 0.00 0.25 0.25 88 999.4
20260505222552 15 255 3.2 12.9 0.00 0.25 0.25 86 999.2
20260505221051 15 228 1.6 8.0 0.00 0.25 0.25 85 998.8
20260505215552 16 226 1.6 14.5 0.00 0.25 0.25 82 998.7
20260505214052 16 266 6.4 27.4 0.00 0.25 0.25 82 998.2
20260505212552 17 335 14.5 30.6 0.00 0.25 0.25 79 997.8
20260505211051 18 289 12.9 30.6 0.00 0.25 0.25 74 997.7
20260505205552 20 193 8.0 25.7 0.00 0.25 0.25 67 996.1
20260505204054 20 253 9.7 22.5 0.00 0.25 0.25 67 995.9
20260505202551 20 157 8.0 25.7 0.00 0.25 0.25 68 996.1
20260505201051 20 184 8.0 19.3 0.00 0.25 0.25 71 996.1
20260505195551 19 207 6.4 20.9 0.00 0.25 0.25 75 996.2
20260505192552 19 199 3.2 11.3 0.00 0.25 0.25 83 996.9
20260505191052 18 221 1.6 6.4 0.00 0.25 0.25 88 997.0
20260505185552 17 220 1.6 6.4 0.00 0.25 0.25 92 997.4
20260505184049 16 225 0.0 3.2 0.00 0.25 0.25 95 997.5
20260505182549 15 225 0.0 0.0 0.05 0.25 0.25 95 997.8
20260505181049 15 226 0.0 0.0 0.08 0.25 0.25 94 998.0
20260505174051 15 226 0.0 4.8 0.13 0.25 0.25 93 998.1
20260505171050 15 225 1.6 8.0 0.18 0.18 0.18 90 998.3
20260505162545 16 225 0.0 8.0 0.05 0.05 0.05 82 998.9
20260505161046 16 216 0.0 9.7 0.00 0.00 0.00 76 998.8
20260505152545 18 214 3.2 25.7 0.00 0.00 0.00 69 998.8
20260505151043 19 148 3.2 11.3 0.00 0.00 0.00 65 998.7
20260505122540 11 11 3.2 6.4 0.00 0.25 0.00 77 1000.0
20260505121040 11 11 1.6 6.4 0.00 0.25 0.00 80 1000.1
20260505115540 10 11 0.0 4.8 0.00 0.25 0.00 82 1000.3
20260505114040 10 11 1.6 11.3 0.00 0.25 0.00 82 1000.4
20260505111038 9 10 4.8 14.5 0.00 0.25 0.00 84 1000.5
20260505101038 7 5 6.4 16.1 0.00 0.25 0.00 88 1000.2
20260505095539 6 28 6.4 14.5 0.00 0.25 0.00 88 1000.4
20260505094040 6 23 6.4 14.5 0.00 0.25 0.00 89 1000.6
20260505092538 6 24 4.8 9.7 0.00 0.25 0.00 89 1000.6
20260505084037 6 23 4.8 12.9 0.00 0.25 0.00 89 1001.0
20260505082537 6 23 4.8 9.7 0.00 0.25 0.00 88 1000.9
20260505081037 6 22 4.8 9.7 0.00 0.25 0.00 89 1001.1
20260505074034 6 22 4.8 12.9 0.00 0.25 0.00 88 1001.4
20260505072534 6 22 4.8 12.9 0.00 0.25 0.00 88 1001.3
20260505071035 7 22 4.8 14.5 0.00 0.25 0.00 88 1001.4
20260505065533 7 20 4.8 12.9 0.00 0.25 0.00 88 1001.4
20260505064036 7 19 6.4 14.5 0.00 0.25 0.00 88 1001.6
20260505062532 7 22 6.4 12.9 0.00 0.25 0.00 87 1001.7
20260505061033 7 23 6.4 14.5 0.00 0.25 0.00 87 1001.9
20260505055532 7 15 6.4 14.5 0.00 0.25 0.00 86 1002.0
20260505054033 7 11 6.4 12.9 0.00 0.25 0.00 86 1002.3
20260505052534 7 20 6.4 14.5 0.00 0.25 0.00 85 1002.4
20260505051032 7 23 6.4 12.9 0.00 0.25 0.00 85 1002.6
20260505041028 7 32 4.8 9.7 0.00 0.25 0.00 85 1003.2
20260505035530 7 32 4.8 16.1 0.00 0.25 0.25 84 1003.2
20260505034024 8 11 6.4 14.5 0.00 0.25 0.25 83 1003.2
20260505032523 8 9 3.2 11.3 0.00 0.25 0.25 83 1003.3
20260505031023 8 0 4.8 12.9 0.00 0.25 0.25 82 1003.3
20260505025524 8 346 1.6 6.4 0.00 0.25 0.25 82 1003.6
20260505022517 8 346 3.2 12.9 0.00 0.25 0.25 82 1003.7
20260505021016 8 206 3.2 6.4 0.00 0.25 0.25 82 1003.8
20260505015517 8 206 0.0 3.2 0.00 0.25 0.25 81 1003.9
20260505014014 8 206 0.0 0.0 0.00 0.25 0.25 81 1004.0
20260505012512 9 206 0.0 0.0 0.00 0.25 0.25 81 1004.1
20260505011012 8 206 0.0 1.6 0.00 0.25 0.25 85 1004.1
20260505004007 9 206 0.0 0.0 0.00 0.25 0.25 79 1004.0